Terminal Aerodrome Forecast
Issued by NWS

Home | Current Version | Previous Version | Text Only | Print | Product List | Glossary On
Versions: 1 2 3 4 5 6 7 8 9 10 11 12 13
984
FTUS45 KABQ 191121
TAFROW
TAF
KROW 191121Z 1912/2012 17010KT P6SM BKN120
     FM192200 16012G22KT P6SM SCT100
     FM200400 16011KT P6SM VCSH SCT060 BKN100=

USA.gov is the U.S. government's official web portal to all federal, state and local government web resources and services.